Location: Heppenheim
(49.6410°N, 8.6370°E)
Time: 17:11:08
(UTC+02:00)

ISS - Pass Details

Date: 07 May 2026
Orbit: 414 x 424 km, 51.6° (Epoch: 10 May)

Event Time Altitude Azimuth Distance (km) Brightness Sun altitude
Exits shadow 01:46:39 20° 72° (ENE) 1,028 -1.6 -23.4°
Drops below altitude 10° 01:47:52 10° 78° (ENE) 1,498 -0.8 -23.4°
Sets 01:49:59 0° 82° (E) 2,364 0.3 -23.3°
